Wind_Speed
6 7 10 13 15 17 19 21 22 23 22 20 18 18 16 14 12 13 11 16 13 6 15 22 23 22 16 10 3 6 9 1 1 3 1 2 3 3 3 6 9 5 4 3 2 3 5 6 6 1 3 5 8 9
7 10 14 18 20 22 25 27 27 26 25 22 20 20 18 15 13 11 12 11 15 13 12 13 18 26 28 29 24 14 12 6 4 1 1 2 3 3 3 3 3 4 2 3 5 3 3 4 16 18 7 5 14 12
7 11 14 18 22 27 31 31 30 29 28 25 23 21 20 16 13 12 12 8 10 16 28 25 22 16 22 22 17 14 13 16 12 18 5 2 4 2 3 6 5 6 14 5 11 4 5 9 9 28 20 14 11 13
15 17 21 25 29 30 30 33 33 31 30 29 25 22 21 17 14 11 12 9 10 7 6 14 18 17 18 16 19 25 32 26 23 22 11 3 3 6 3 7 12 12 10 7 6 14 18 18 24 24 4 4 5 7
19 20 15 15 18 21 26 30 29 32 29 30 28 24 21 17 14 11 10 11 12 12 5 19 34 21 17 15 19 22 33 27 19 8 4 4 5 6 8 8 9 6 5 3 2 21 17 10 10 8 8 11 7 7
24 21 15 12 15 14 7 18 23 26 28 24 28 25 22 17 15 11 4 10 12 15 7 3 12 34 17 11 15 19 21 30 26 13 6 7 17 7 3 4 10 18 21 14 17 27 23 17 19 18 22 21 17 16
28 23 20 16 16 15 9 12 15 20 21 19 26 25 18 17 17 16 3 6 4 10 4 6 6 7 10 16 5 9 17 15 17 14 12 14 13 9 5 13 28 33 35 37 25 17 13 20 22 23 25 22 17 15
30 27 23 24 23 22 23 22 21 20 21 20 25 17 13 12 12 18 19 14 11 12 7 3 4 6 5 4 2 8 4 16 9 7 5 4 7 8 5 10 17 17 16 7 19 17 16 19 16 21 17 12 12 14
31 30 26 25 26 25 24 23 24 19 26 27 18 15 12 9 7 15 11 8 13 11 4 4 2 4 3 2 3 4 4 3 7 5 4 6 2 5 9 9 9 7 6 10 13 13 18 18 23 21 11 9 2 5
27 29 29 29 29 29 30 32 33 30 25 22 17 6 5 5 7 8 4 3 6 7 8 5 6 6 14 15 4 3 4 3 3 6 9 4 5 21 20 8 5 6 11 16 15 21 22 25 23 19 12 9 6 7
20 22 24 26 28 30 30 27 25 22 18 10 2 1 2 2 4 4 4 4 4 3 6 7 12 8 7 3 3 5 2 3 3 4 4 4 2 2 9 7 8 11 12 12 12 14 14 12 15 15 14 12 10 10
16 16 17 19 20 21 22 21 16 6 3 1 4 3 3 2 3 2 2 3 4 3 5 4 8 11 8 8 5 4 3 3 3 4 1 1 2 10 13 14 11 12 14 13 15 17 15 11 14 12 13 14 14 13
10 11 12 13 17 17 10 7 4 2 1 3 3 2 2 2 1 3 3 3 3 4 4 9 6 4 3 8 5 2 2 3 4 3 1 1 7 13 13 13 14 14 16 12 14 16 16 10 12 12 10 11 11 10
7 5 5 6 7 6 1 4 4 2 3 3 3 2 3 3 4 4 3 3 8 11 19 17 8 3 2 2 1 1 3 2 4 2 2 1 6 8 10 12 13 14 17 14 14 16 15 14 10 11 10 8 10 10
3 3 2 1 2 4 7 7 6 7 3 2 3 4 5 10 7 10 12 10 14 14 14 10 7 4 2 1 2 2 5 2 0 2 3 9 7 9 11 12 14 14 15 13 13 16 17 14 10 10 11 6 6 7
4 5 1 2 3 4 6 8 10 9 3 3 5 4 8 2 5 6 12 11 17 17 18 5 2 2 3 2 1 4 2 2 2 1 8 10 9 10 9 12 13 15 14 15 14 13 16 14 11 11 11 11 10 5
5 2 4 4 5 6 6 5 4 4 4 4 6 13 17 15 12 13 10 14 14 10 2 2 2 3 2 2 2 1 2 2 2 9 10 11 11 10 8 10 14 15 16 18 17 17 13 13 12 10 13 14 12 8
7 6 7 2 6 5 4 7 4 5 6 10 7 11 15 17 17 17 15 10 9 6 4 2 5 2 3 2 2 2 6 3 7 10 8 13 18 8 9 13 14 15 16 17 18 17 17 16 14 12 12 11 13 11
8 12 12 10 7 4 3 4 6 5 11 12 14 19 16 15 17 16 8 7 9 9 8 4 4 2 2 1 1 2 6 8 9 11 9 12 12 12 12 11 14 17 18 18 18 17 17 17 15 17 13 12 11 10
9 7 8 9 10 5 4 5 7 6 5 4 8 10 9 8 13 10 7 9 11 5 4 3 3 1 2 3 3 3 5 6 7 10 12 15 17 15 15 16 16 16 16 17 17 17 19 19 14 14 13 11 13 12
3 1 2 4 7 10 6 5 6 6 7 5 10 11 7 10 11 14 16 14 7 4 3 8 7 9 2 1 3 0 1 6 8 8 10 16 17 15 14 15 17 17 16 17 19 19 18 20 19 17 16 15 12 15
3 3 4 6 5 4 7 6 6 11 7 10 17 14 7 4 7 8 3 5 1 8 12 13 13 9 4 4 5 7 5 4 7 10 15 17 20 20 20 19 21 23 23 21 19 19 19 20 22 18 18 16 15 14
4 4 4 4 5 4 6 6 3 4 2 4 7 3 3 6 8 5 2 4 6 16 20 22 20 14 14 13 12 9 9 12 16 20 21 21 20 19 19 23 24 24 25 25 22 21 20 18 20 16 17 17 14 14
2 3 3 3 4 4 5 3 3 4 4 4 3 4 4 4 6 3 3 5 9 15 19 21 20 19 17 16 16 17 19 19 20 20 18 19 22 24 26 24 21 20 20 21 19 21 19 19 16 16 16 17 15 14
2 3 2 3 3 2 3 4 4 2 1 3 2 4 3 5 2 3 3 4 13 15 14 14 13 12 13 14 14 15 19 20 21 23 23 21 22 23 23 24 18 14 14 15 18 21 21 19 17 17 18 17 16 16
1 4 3 3 2 1 2 3 2 3 1 3 4 5 5 2 3 3 2 6 9 10 10 12 13 14 13 12 14 19 21 20 20 20 21 21 20 19 18 21 21 19 16 18 21 21 22 22 21 20 20 19 18 16
1 3 2 1 1 3 4 5 6 1 2 2 2 3 3 2 2 3 3 8 7 6 9 11 11 10 11 14 14 14 15 14 13 17 21 21 13 14 17 22 24 22 19 16 18 21 23 23 22 21 21 21 19 16
1 0 2 1 3 3 3 2 1 2 2 6 8 3 1 1 1 3 4 3 5 8 7 7 9 11 12 13 14 18 20 19 19 22 24 20 18 17 19 22 22 21 21 21 21 21 22 22 21 20 21 21 19 14
2 2 2 2 2 3 2 3 1 1 5 3 2 2 1 4 6 10 6 7 7 7 10 13 15 17 19 20 20 20 22 24 26 31 34 36 36 32 27 26 27 26 24 23 21 20 19 19 20 20 21 20 16 12
2 3 1 1 3 3 1 5 7 11 8 8 7 6 13 14 13 11 12 12 14 16 17 17 17 18 21 25 28 27 26 25 21 24 29 32 34 32 29 28 28 27 26 25 24 23 20 17 17 17 15 12 11 11
2 1 2 3 3 3 6 13 20 23 14 10 10 12 14 13 12 13 16 19 23 23 23 23 20 17 18 24 24 29 34 34 30 26 25 29 28 25 24 26 25 26 25 23 20 20 19 18 18 16 12 10 11 8
3 4 3 1 3 4 7 15 10 5 5 2 5 12 19 7 3 3 13 16 24 26 21 21 22 23 23 27 30 31 33 32 24 22 27 28 25 24 22 22 23 23 22 19 17 16 18 18 15 10 7 8 6 4
4 5 1 2 3 3 5 8 3 4 3 4 7 10 11 4 3 6 12 12 19 18 25 28 26 23 25 25 23 20 18 17 19 24 26 23 20 19 18 19 21 22 19 15 16 17 16 13 9 5 3 4 3 3
Wind_Direction
225 241 247 247 246 243 239 235 230 226 226 224 220 212 219 220 219 223 213 209 229 253 264 266 271 279 268 249 213 288 333 278 260 25 302 324 283 293 295 276 301 298 316 275 258 230 279 241 353 98 207 155 153 142
282 275 264 258 255 253 250 245 240 235 230 227 224 218 219 221 226 216 226 209 224 253 258 259 259 268 268 266 265 258 237 285 310 327 311 279 309 294 257 268 304 314 2 281 277 298 344 25 299 319 250 193 213 222
308 296 289 279 267 252 245 244 241 235 231 226 222 219 214 221 226 219 237 231 241 272 282 272 273 300 283 269 270 243 258 241 237 260 242 249 261 293 303 285 265 292 308 260 325 9 310 19 313 278 268 247 261 246
347 325 305 290 281 271 259 242 236 234 230 218 218 215 213 218 221 224 226 235 241 261 272 287 288 279 286 268 255 260 263 257 255 258 263 245 260 241 234 261 288 285 288 266 290 281 293 242 246 260 230 247 200 200
355 345 332 321 307 289 260 245 236 222 221 225 210 212 218 220 218 225 235 245 248 237 270 291 296 305 312 267 289 267 246 247 247 226 225 233 227 258 259 266 264 223 246 259 293 303 286 282 323 280 255 238 229 250
19 17 12 6 357 342 266 219 215 206 206 214 211 199 196 203 208 211 259 252 246 236 255 274 296 298 318 273 287 276 244 242 232 232 229 227 242 233 262 261 265 274 273 242 291 295 303 327 329 327 321 311 261 250
32 37 34 28 35 45 79 144 166 178 179 189 195 186 181 200 206 202 229 185 185 336 305 292 283 272 292 301 299 309 247 230 223 229 235 242 248 265 272 268 277 290 297 296 307 318 313 330 317 314 303 290 265 245
46 47 57 62 65 75 90 105 124 142 155 184 153 156 174 190 219 240 241 240 269 290 240 260 268 298 257 263 201 11 288 215 213 216 231 209 240 210 252 248 268 304 323 351 343 337 327 329 331 328 295 298 252 216
55 57 63 75 82 89 99 110 125 131 134 125 135 149 161 200 231 265 282 261 231 231 248 248 244 282 296 284 271 282 244 193 206 207 209 189 230 228 247 280 331 334 326 331 351 355 352 356 1 359 3 349 325 301
62 63 68 78 88 94 98 104 115 122 130 137 140 145 187 214 248 271 263 213 211 221 228 242 225 257 286 298 307 317 260 225 213 205 172 204 252 261 287 299 333 342 2 4 3 357 349 351 4 10 19 15 342 301
69 77 78 81 88 96 104 111 117 123 125 126 162 231 256 249 169 221 239 189 206 249 231 251 232 236 259 205 212 234 249 214 266 127 210 168 213 19 30 35 16 9 2 2 358 345 343 341 352 358 357 3 357 346
75 82 90 94 97 103 106 107 106 116 126 86 309 259 175 189 235 240 246 241 210 253 216 218 247 224 233 212 212 215 258 15 276 165 56 27 344 26 14 8 4 352 356 3 2 359 354 351 357 350 352 356 355 347
74 83 95 111 120 122 109 87 94 119 185 234 260 224 180 224 230 244 244 224 249 265 278 293 302 263 233 206 233 270 14 252 324 34 164 352 1 5 351 348 345 345 349 354 5 3 4 360 0 360 357 4 12 18
67 73 102 134 163 175 145 39 34 356 312 236 221 303 192 234 223 212 241 251 276 257 270 291 282 275 284 214 251 36 253 33 353 360 53 218 308 325 345 343 339 345 349 358 360 354 359 0 2 357 353 359 11 20
336 359 50 125 218 238 253 269 312 328 294 274 226 239 218 231 256 274 279 268 306 308 316 303 285 243 281 340 219 318 354 282 284 49 4 10 360 346 353 347 344 343 356 356 355 349 351 355 355 355 355 338 350 352
305 285 277 348 337 292 262 264 285 303 253 248 235 250 253 276 276 299 316 303 329 317 318 260 256 320 265 201 247 227 256 10 61 337 323 342 332 342 344 354 3 2 1 0 354 345 356 349 348 354 358 346 338 312
301 270 267 298 325 313 253 259 278 249 244 238 244 247 255 277 282 296 298 309 315 312 283 327 301 256 326 254 234 289 58 145 345 352 351 343 330 316 353 3 7 360 355 353 349 346 339 345 341 343 344 350 340 317
257 251 291 264 323 340 267 233 247 243 244 244 244 260 246 249 268 282 294 289 305 308 307 281 318 288 251 262 2 35 46 26 7 0 4 351 355 359 358 344 347 342 340 343 353 348 343 337 330 321 321 316 327 316
281 264 260 258 272 254 258 237 221 256 241 243 262 271 266 266 267 291 288 283 277 276 281 266 252 239 271 48 352 327 32 15 351 351 352 347 352 350 352 346 345 346 346 341 336 336 339 334 324 319 312 299 300 310
301 285 261 248 220 222 253 233 217 247 261 264 270 260 250 256 281 277 263 254 266 267 245 230 232 226 276 303 325 342 4 351 356 348 346 346 347 350 356 352 342 333 332 335 334 330 333 329 317 312 312 309 268 271
302 307 132 166 209 228 262 263 242 243 271 266 282 293 270 262 256 254 251 239 206 213 241 239 251 244 213 3 20 284 279 16 15 5 352 341 345 346 348 343 338 339 341 335 334 334 336 330 321 317 310 298 290 260
210 218 264 257 237 242 251 248 272 300 293 271 285 285 255 247 251 267 220 184 226 11 349 316 256 214 225 179 130 121 98 42 0 349 344 343 342 340 337 337 335 334 329 323 326 329 324 322 326 312 304 303 280 279
254 248 209 213 230 252 264 296 270 246 263 287 318 303 315 346 313 275 80 57 67 24 22 51 49 72 86 91 92 68 26 358 347 343 343 340 339 336 331 329 332 331 326 327 322 312 320 315 321 323 322 312 285 274
262 205 214 212 217 260 294 282 275 284 286 350 340 301 281 264 304 268 90 66 37 35 32 29 30 26 18 19 18 359 348 343 337 337 343 340 332 326 329 331 334 333 329 326 325 318 312 318 314 312 317 318 307 281
212 211 216 266 217 253 339 320 308 356 317 311 293 282 287 323 330 8 67 84 34 29 19 14 14 7 1 349 349 342 338 344 339 333 333 337 337 332 334 341 347 356 358 338 329 331 327 314 306 312 315 314 309 300
143 202 161 201 286 108 272 326 281 242 235 257 257 304 325 40 38 51 62 24 34 24 12 7 359 352 354 355 339 333 333 333 329 329 334 339 337 338 346 339 336 331 345 342 333 330 325 323 319 313 306 306 303 297
253 261 178 73 324 302 312 289 296 263 257 234 325 327 23 17 57 90 100 33 41 16 354 349 354 3 351 348 352 350 345 344 339 333 331 334 329 329 330 340 330 319 318 322 313 316 319 315 315 311 306 302 303 297
273 131 142 5 325 253 184 295 256 245 26 4 342 345 204 163 79 74 82 29 353 349 2 20 25 18 9 3 0 356 348 340 335 332 332 338 334 335 331 331 331 325 315 304 303 306 309 307 304 305 302 298 298 295
120 66 304 318 282 277 259 195 350 23 319 256 199 254 63 66 100 108 87 62 50 31 13 359 352 349 346 350 350 349 349 345 339 339 337 333 330 327 331 330 330 330 327 319 311 309 309 304 301 299 295 289 284 291
161 9 250 242 141 245 264 314 311 309 288 276 272 112 100 102 100 93 71 46 27 15 3 353 342 336 335 336 338 339 340 345 339 330 329 324 321 320 318 320 326 329 329 325 319 315 313 307 302 297 292 285 275 275
256 234 230 216 237 255 321 317 312 310 311 292 259 227 147 138 99 54 32 15 5 359 353 352 353 352 339 335 337 331 327 332 329 323 325 326 323 319 316 319 323 326 328 327 325 325 322 318 311 305 292 274 264 263
217 215 180 247 261 287 309 337 326 310 308 358 56 137 128 131 120 62 10 353 355 358 3 355 343 336 325 315 313 314 314 317 322 327 331 328 322 320 321 322 323 326 330 330 328 331 326 321 316 306 303 241 233 253
261 253 147 310 325 330 322 315 281 287 285 116 95 94 98 85 103 23 356 339 346 349 353 350 343 341 340 339 334 332 332 333 330 336 336 328 322 322 322 323 324 327 329 329 333 330 329 331 340 330 263 230 227 208
Height
1437 1435 1439 1438 1438 1441 1443 1446 1448 1453 1457 1460 1463 1466 1469 1471 1475 1477 1480 1480 1481 1478 1474 1474 1476 1478 1478 1479 1479 1473 1473 1466 1464 1469 1463 1454 1449 1440 1438 1431 1424 1421 1418 1411 1401 1397 1390 1379 1377 1379 1375 1375 1375 1374
1432 1431 1434 1432 1432 1434 1436 1439 1442 1447 1452 1457 1460 1463 1466 1471 1473 1474 1476 1478 1477 1475 1470 1470 1471 1470 1470 1471 1473 1470 1469 1466 1466 1465 1462 1458 1447 1446 1441 1434 1421 1422 1421 1423 1412 1389 1386 1381 1378 1378 1374 1372 1373 1373
1430 1429 1427 1425 1424 1423 1425 1429 1434 1439 1445 1450 1455 1459 1463 1468 1470 1472 1473 1475 1474 1472 1468 1463 1459 1461 1461 1461 1464 1465 1460 1461 1460 1460 1458 1457 1457 1446 1442 1432 1423 1417 1415 1412 1411 1389 1386 1381 1379 1378 1375 1372 1370 1370
1426 1423 1419 1415 1412 1411 1412 1416 1423 1431 1437 1443 1450 1455 1460 1464 1467 1469 1471 1472 1475 1475 1469 1455 1454 1452 1454 1454 1454 1453 1450 1453 1455 1455 1454 1454 1452 1441 1437 1429 1423 1418 1413 1405 1395 1391 1384 1380 1375 1374 1372 1371 1369 1369
1422 1416 1410 1406 1403 1400 1398 1403 1411 1420 1429 1436 1443 1451 1457 1461 1465 1467 1469 1471 1473 1475 1467 1453 1446 1442 1442 1442 1441 1440 1442 1446 1447 1449 1448 1447 1442 1439 1426 1423 1412 1409 1404 1399 1393 1389 1385 1376 1373 1371 1369 1368 1366 1366
1419 1412 1407 1404 1399 1392 1388 1394 1403 1412 1422 1432 1439 1447 1453 1460 1464 1466 1468 1467 1467 1469 1465 1456 1442 1436 1433 1433 1433 1431 1433 1436 1439 1439 1437 1436 1435 1434 1426 1414 1398 1398 1395 1396 1394 1385 1379 1375 1371 1368 1366 1364 1362 1361
1419 1412 1408 1404 1400 1394 1392 1396 1404 1412 1422 1431 1438 1445 1453 1459 1461 1464 1465 1465 1465 1466 1465 1456 1442 1432 1430 1428 1428 1425 1425 1427 1430 1432 1430 1431 1430 1431 1422 1412 1388 1394 1394 1385 1384 1382 1376 1371 1367 1363 1361 1359 1357 1356
1423 1417 1414 1409 1406 1403 1403 1406 1413 1419 1427 1433 1441 1449 1455 1459 1461 1461 1461 1464 1464 1464 1463 1456 1443 1433 1426 1425 1424 1423 1422 1421 1423 1424 1422 1422 1423 1420 1410 1396 1395 1394 1388 1383 1383 1380 1376 1370 1364 1359 1355 1353 1352 1352
1428 1424 1421 1418 1416 1414 1415 1417 1421 1425 1433 1440 1447 1452 1455 1458 1459 1457 1458 1458 1459 1464 1456 1449 1443 1438 1425 1424 1423 1421 1420 1416 1417 1416 1416 1418 1415 1409 1393 1393 1392 1392 1390 1386 1382 1379 1373 1366 1361 1356 1352 1351 1350 1349
1436 1434 1432 1428 1425 1424 1425 1427 1431 1436 1441 1446 1451 1453 1454 1455 1455 1456 1455 1455 1454 1452 1448 1440 1437 1431 1430 1426 1421 1421 1416 1409 1405 1404 1407 1408 1400 1392 1392 1392 1391 1389 1386 1381 1377 1371 1368 1364 1361 1358 1355 1353 1351 1349
1445 1443 1441 1439 1438 1437 1437 1439 1442 1445 1448 1451 1452 1452 1453 1452 1453 1453 1451 1451 1449 1446 1440 1431 1428 1426 1423 1422 1420 1418 1414 1401 1393 1395 1395 1397 1393 1390 1393 1390 1390 1388 1385 1382 1380 1376 1372 1368 1364 1361 1357 1354 1352 1350
1450 1449 1447 1446 1446 1446 1446 1448 1449 1450 1451 1452 1452 1451 1452 1452 1452 1451 1449 1445 1443 1435 1429 1426 1422 1418 1417 1417 1416 1413 1406 1403 1401 1395 1395 1395 1396 1395 1393 1391 1390 1388 1384 1381 1378 1375 1371 1368 1365 1362 1358 1355 1352 1348
1453 1452 1452 1451 1451 1451 1451 1451 1451 1451 1451 1452 1452 1450 1451 1452 1451 1447 1448 1438 1436 1431 1426 1422 1420 1414 1412 1413 1412 1407 1408 1408 1396 1404 1402 1398 1396 1394 1394 1392 1390 1388 1385 1382 1378 1375 1372 1368 1366 1362 1359 1357 1354 1350
1455 1454 1454 1454 1453 1453 1452 1452 1452 1451 1451 1450 1450 1452 1450 1450 1445 1440 1438 1434 1432 1427 1423 1421 1418 1414 1411 1411 1409 1409 1403 1401 1409 1404 1394 1398 1398 1397 1395 1393 1391 1387 1384 1381 1378 1375 1372 1369 1366 1364 1361 1358 1355 1353
1456 1456 1455 1454 1454 1453 1453 1453 1453 1452 1451 1449 1448 1449 1442 1436 1435 1434 1433 1432 1429 1424 1422 1419 1415 1413 1410 1411 1408 1405 1407 1406 1399 1397 1400 1400 1399 1397 1395 1394 1391 1388 1383 1381 1378 1375 1372 1369 1366 1364 1361 1358 1357 1356
1456 1455 1455 1454 1454 1453 1453 1452 1452 1452 1449 1447 1444 1440 1434 1435 1433 1432 1431 1428 1427 1424 1419 1417 1415 1413 1411 1408 1405 1408 1400 1399 1402 1404 1403 1400 1399 1397 1395 1393 1391 1387 1384 1380 1378 1375 1372 1369 1366 1364 1362 1360 1358 1356
1454 1455 1454 1453 1452 1451 1451 1451 1451 1449 1446 1443 1436 1433 1432 1431 1430 1429 1428 1427 1426 1423 1420 1417 1417 1408 1406 1405 1400 1398 1401 1403 1404 1403 1402 1399 1397 1395 1393 1392 1390 1386 1384 1381 1377 1373 1371 1368 1366 1363 1362 1360 1358 1356
1451 1452 1452 1451 1451 1450 1450 1449 1448 1445 1440 1435 1433 1426 1427 1426 1424 1423 1423 1424 1424 1422 1419 1417 1416 1411 1413 1403 1403 1404 1404 1404 1404 1403 1401 1399 1397 1393 1392 1390 1387 1385 1382 1379 1376 1373 1369 1366 1364 1362 1361 1360 1358 1356
1448 1447 1448 1449 1449 1450 1448 1446 1445 1440 1432 1429 1425 1424 1423 1421 1420 1420 1420 1420 1420 1420 1419 1416 1413 1409 1406 1405 1404 1404 1404 1403 1403 1401 1401 1399 1396 1393 1390 1388 1386 1383 1380 1377 1374 1371 1368 1366 1363 1361 1359 1357 1356 1355
1443 1442 1443 1444 1446 1447 1444 1441 1438 1434 1428 1423 1421 1419 1419 1417 1416 1415 1416 1417 1417 1417 1415 1412 1409 1406 1406 1405 1404 1404 1404 1403 1402 1400 1398 1396 1394 1391 1389 1386 1383 1381 1378 1375 1372 1369 1366 1363 1361 1358 1356 1354 1353 1353
1441 1440 1441 1442 1443 1443 1440 1434 1431 1427 1424 1421 1419 1417 1415 1413 1412 1411 1411 1412 1413 1412 1409 1405 1404 1404 1404 1403 1403 1403 1403 1402 1401 1400 1397 1394 1392 1389 1387 1384 1381 1378 1375 1373 1370 1366 1364 1361 1358 1355 1353 1351 1350 1350
1438 1439 1440 1440 1440 1439 1435 1431 1429 1426 1424 1419 1417 1414 1412 1410 1408 1407 1407 1409 1409 1409 1408 1404 1401 1400 1400 1400 1401 1401 1402 1401 1400 1398 1396 1393 1389 1386 1383 1382 1379 1375 1373 1370 1367 1363 1361 1358 1355 1352 1349 1347 1346 1345
1436 1436 1437 1437 1437 1435 1432 1428 1426 1423 1421 1416 1414 1412 1410 1409 1407 1406 1407 1409 1413 1414 1411 1403 1402 1402 1401 1400 1399 1399 1399 1398 1397 1395 1392 1390 1387 1385 1381 1379 1376 1372 1368 1365 1362 1360 1357 1355 1352 1349 1346 1344 1342 1341
1434 1434 1434 1434 1434 1432 1430 1426 1425 1422 1419 1417 1417 1415 1410 1407 1405 1403 1406 1415 1419 1416 1412 1410 1408 1408 1407 1404 1401 1401 1399 1397 1394 1392 1390 1387 1383 1380 1378 1375 1372 1369 1366 1362 1359 1356 1354 1351 1348 1346 1344 1341 1339 1337
1435 1434 1434 1431 1431 1431 1430 1428 1425 1423 1426 1422 1419 1417 1410 1408 1408 1406 1409 1418 1419 1417 1415 1413 1411 1409 1408 1404 1402 1401 1400 1396 1392 1389 1387 1385 1381 1377 1373 1371 1367 1364 1361 1358 1356 1353 1350 1347 1345 1342 1340 1338 1336 1334
1434 1431 1432 1430 1430 1431 1429 1431 1428 1426 1423 1424 1418 1412 1409 1409 1413 1414 1418 1420 1419 1418 1415 1413 1411 1409 1407 1405 1403 1400 1397 1394 1391 1388 1385 1382 1379 1376 1373 1368 1365 1361 1360 1357 1353 1350 1346 1343 1341 1338 1336 1333 1331 1329
1433 1430 1429 1430 1429 1429 1428 1425 1423 1423 1424 1424 1417 1416 1416 1421 1415 1418 1420 1420 1419 1418 1416 1413 1411 1409 1408 1405 1402 1399 1396 1392 1389 1386 1383 1379 1377 1374 1371 1367 1362 1359 1356 1353 1350 1346 1343 1339 1336 1333 1331 1328 1326 1324
1429 1428 1430 1430 1429 1428 1428 1427 1426 1425 1421 1422 1420 1422 1421 1418 1420 1421 1421 1420 1418 1417 1415 1414 1412 1410 1407 1405 1402 1397 1392 1389 1385 1381 1378 1375 1372 1369 1366 1362 1358 1354 1350 1347 1344 1341 1337 1334 1331 1328 1326 1323 1321 1320
1427 1428 1428 1428 1427 1426 1425 1425 1423 1424 1423 1422 1421 1418 1416 1419 1420 1421 1420 1419 1418 1416 1414 1412 1410 1407 1405 1402 1398 1395 1391 1385 1381 1375 1371 1366 1361 1359 1358 1355 1351 1347 1343 1339 1336 1334 1331 1328 1325 1322 1320 1318 1317 1316
1426 1426 1426 1426 1427 1426 1424 1423 1422 1420 1419 1419 1418 1418 1420 1422 1422 1421 1421 1419 1416 1415 1413 1410 1407 1403 1399 1395 1391 1389 1387 1384 1382 1378 1372 1366 1361 1356 1352 1349 1345 1341 1337 1333 1329 1326 1324 1321 1319 1316 1314 1313 1312 1313
1424 1424 1424 1424 1422 1421 1421 1420 1418 1415 1411 1409 1410 1410 1415 1419 1420 1420 1419 1418 1415 1412 1409 1405 1402 1400 1397 1393 1389 1384 1378 1378 1375 1372 1368 1362 1357 1352 1348 1345 1341 1337 1333 1329 1325 1322 1319 1316 1314 1311 1310 1309 1310 1310
1422 1422 1422 1423 1420 1420 1419 1417 1414 1412 1410 1409 1410 1411 1414 1416 1419 1420 1419 1416 1413 1409 1407 1404 1401 1397 1394 1390 1386 1381 1377 1372 1368 1365 1361 1356 1351 1348 1344 1340 1337 1333 1329 1326 1323 1319 1316 1313 1310 1308 1307 1307 1308 1309
1420 1419 1420 1420 1419 1418 1418 1417 1414 1412 1410 1410 1413 1414 1414 1416 1418 1419 1418 1415 1413 1408 1405 1401 1397 1393 1388 1382 1377 1373 1370 1367 1364 1361 1356 1352 1347 1344 1340 1337 1333 1330 1327 1324 1321 1317 1314 1311 1309 1307 1307 1308 1308 1309